Time,TemperatureF,DewpointF,PressureIn,WindDirection,WindDirectionDegrees,WindSpeedMPH,WindSpeedGustMPH,Humidity,HourlyPrecipIn,Conditions,Clouds,dailyrainin,SoftwareType,DateUTC
2013-03-02 00:05:00,44.9,26.4,30.26,North,0,0.0,0.0,48,0.00,,,0.00,Wunderground v.1.15,2013-03-02 06:05:00,
2013-03-02 00:10:00,44.5,27.0,30.27,North,0,0.0,1.0,50,0.00,,,0.00,Wunderground v.1.15,2013-03-02 06:10:00,
2013-03-02 00:20:00,44.8,26.8,30.27,North,359,2.0,2.0,49,0.00,,,0.00,Wunderground v.1.15,2013-03-02 06:20:00,
2013-03-02 00:25:00,44.9,26.9,30.27,North,359,1.0,2.0,49,0.00,,,0.00,Wunderground v.1.15,2013-03-02 06:25:00,
2013-03-02 00:35:00,44.5,27.0,30.27,North,359,0.0,1.0,50,0.00,,,0.00,Wunderground v.1.15,2013-03-02 06:35:00,
2013-03-02 00:40:00,44.1,26.6,30.27,North,359,0.0,0.0,50,0.00,,,0.00,Wunderground v.1.15,2013-03-02 06:40:00,
2013-03-02 00:50:00,43.2,26.7,30.28,North,0,1.0,2.0,52,0.00,,,0.00,Wunderground v.1.15,2013-03-02 06:50:00,
2013-03-02 00:55:00,43.1,27.1,30.29,North,0,1.0,2.0,53,0.00,,,0.00,Wunderground v.1.15,2013-03-02 06:55:00,
2013-03-02 01:05:00,42.8,26.8,30.29,North,0,0.0,1.0,53,0.00,,,0.00,Wunderground v.1.15,2013-03-02 07:05:00,
2013-03-02 01:10:00,42.5,27.0,30.29,North,0,1.0,1.0,54,0.00,,,0.00,Wunderground v.1.15,2013-03-02 07:10:00,
2013-03-02 01:20:00,42.3,26.8,30.29,North,0,0.0,0.0,54,0.00,,,0.00,Wunderground v.1.15,2013-03-02 07:20:00,
2013-03-02 01:25:00,42.1,27.1,30.29,North,0,0.0,0.0,55,0.00,,,0.00,Wunderground v.1.15,2013-03-02 07:25:00,
2013-03-02 01:35:00,41.3,26.8,30.29,North,0,0.0,0.0,56,0.00,,,0.00,Wunderground v.1.15,2013-03-02 07:35:00,
2013-03-02 01:40:00,41.1,26.6,30.30,North,0,0.0,0.0,56,0.00,,,0.00,Wunderground v.1.15,2013-03-02 07:40:00,
2013-03-02 01:50:00,40.5,26.4,30.29,North,0,0.0,0.0,57,0.00,,,0.00,Wunderground v.1.15,2013-03-02 07:50:00,
2013-03-02 01:55:00,40.1,26.9,30.30,North,0,0.0,0.0,59,0.00,,,0.00,Wunderground v.1.15,2013-03-02 07:55:00,
2013-03-02 02:05:00,39.5,26.3,30.30,North,0,0.0,0.0,59,0.00,,,0.00,Wunderground v.1.15,2013-03-02 08:05:00,
2013-03-02 02:10:00,39.2,26.5,30.30,North,0,0.0,0.0,60,0.00,,,0.00,Wunderground v.1.15,2013-03-02 08:10:00,
2013-03-02 02:20:00,38.9,27.0,30.30,North,0,0.0,0.0,62,0.00,,,0.00,Wunderground v.1.15,2013-03-02 08:20:00,
2013-03-02 02:25:00,38.8,26.9,30.30,North,0,0.0,0.0,62,0.00,,,0.00,Wunderground v.1.15,2013-03-02 08:25:00,
2013-03-02 02:35:00,38.5,26.6,30.30,North,0,0.0,0.0,62,0.00,,,0.00,Wunderground v.1.15,2013-03-02 08:35:00,
2013-03-02 02:40:00,38.3,26.4,30.30,North,0,0.0,0.0,62,0.00,,,0.00,Wunderground v.1.15,2013-03-02 08:40:00,
2013-03-02 02:50:00,38.2,26.3,30.31,North,0,0.0,1.0,62,0.00,,,0.00,Wunderground v.1.15,2013-03-02 08:50:00,
2013-03-02 02:55:00,38.0,26.5,30.30,North,0,1.0,1.0,63,0.00,,,0.00,Wunderground v.1.15,2013-03-02 08:55:00,
2013-03-02 03:05:00,37.8,26.7,30.30,North,0,0.0,0.0,64,0.00,,,0.00,Wunderground v.1.15,2013-03-02 09:05:00,
2013-03-02 03:10:00,37.8,26.7,30.30,North,359,0.0,0.0,64,0.00,,,0.00,Wunderground v.1.15,2013-03-02 09:10:00,
2013-03-02 03:20:00,37.8,27.1,30.30,North,359,0.0,0.0,65,0.00,,,0.00,Wunderground v.1.15,2013-03-02 09:20:00,
2013-03-02 03:25:00,37.8,27.1,30.30,North,359,0.0,0.0,65,0.00,,,0.00,Wunderground v.1.15,2013-03-02 09:25:00,
2013-03-02 03:35:00,37.6,26.9,30.30,North,359,0.0,0.0,65,0.00,,,0.00,Wunderground v.1.15,2013-03-02 09:35:00,
2013-03-02 03:40:00,37.6,26.9,30.30,North,359,0.0,3.0,65,0.00,,,0.00,Wunderground v.1.15,2013-03-02 09:40:00,
2013-03-02 03:50:00,37.3,27.0,30.31,North,359,0.0,0.0,66,0.00,,,0.00,Wunderground v.1.15,2013-03-02 09:50:00,
2013-03-02 03:55:00,37.3,27.0,30.31,North,359,0.0,0.0,66,0.00,,,0.00,Wunderground v.1.15,2013-03-02 09:55:00,
2013-03-02 04:05:00,37.2,26.9,30.32,North,359,0.0,0.0,66,0.00,,,0.00,Wunderground v.1.15,2013-03-02 10:05:00,
2013-03-02 04:10:00,37.0,27.1,30.32,North,359,0.0,0.0,67,0.00,,,0.00,Wunderground v.1.15,2013-03-02 10:10:00,
2013-03-02 04:20:00,37.0,27.1,30.32,North,359,0.0,1.0,67,0.00,,,0.00,Wunderground v.1.15,2013-03-02 10:20:00,
2013-03-02 04:25:00,37.0,27.1,30.32,North,357,0.0,2.0,67,0.00,,,0.00,Wunderground v.1.15,2013-03-02 10:25:00,
2013-03-02 04:40:00,37.2,27.2,30.32,North,357,0.0,0.0,67,0.00,,,0.00,Wunderground v.1.15,2013-03-02 10:40:00,
2013-03-02 04:50:00,37.5,27.5,30.32,North,356,0.0,4.0,67,0.00,,,0.00,Wunderground v.1.15,2013-03-02 10:50:00,
2013-03-02 04:55:00,37.8,27.5,30.32,North,356,1.0,4.0,66,0.00,,,0.00,Wunderground v.1.15,2013-03-02 10:55:00,
2013-03-02 05:05:00,38.2,27.5,30.32,North,356,1.0,1.0,65,0.00,,,0.00,Wunderground v.1.15,2013-03-02 11:05:00,
2013-03-02 05:10:00,38.3,27.6,30.32,North,356,1.0,1.0,65,0.00,,,0.00,Wunderground v.1.15,2013-03-02 11:10:00,
2013-03-02 05:20:00,38.5,27.7,30.32,North,356,1.0,1.0,65,0.00,,,0.00,Wunderground v.1.15,2013-03-02 11:20:00,
2013-03-02 05:25:00,38.5,27.7,30.32,North,354,1.0,5.0,65,0.00,,,0.00,Wunderground v.1.15,2013-03-02 11:25:00,
2013-03-02 05:35:00,38.5,27.7,30.33,NNW,343,2.0,2.0,65,0.00,,,0.00,Wunderground v.1.15,2013-03-02 11:35:00,
2013-03-02 05:40:00,38.6,27.8,30.33,NNW,343,2.0,3.0,65,0.00,,,0.00,Wunderground v.1.15,2013-03-02 11:40:00,
2013-03-02 05:50:00,38.8,27.7,30.34,NNW,340,2.0,2.0,64,0.00,,,0.00,Wunderground v.1.15,2013-03-02 11:50:00,
2013-03-02 05:55:00,38.8,27.7,30.34,NNW,333,2.0,3.0,64,0.00,,,0.00,Wunderground v.1.15,2013-03-02 11:55:00,
2013-03-02 06:04:00,38.6,27.5,30.35,NNW,330,3.0,3.0,64,0.00,,,0.00,Wunderground v.1.15,2013-03-02 12:04:00,
2013-03-02 06:10:00,38.6,27.5,30.34,North,352,3.0,6.0,64,0.00,,,0.00,Wunderground v.1.15,2013-03-02 12:10:00,
2013-03-02 06:20:00,38.5,27.4,30.34,NNW,336,4.0,4.0,64,0.00,,,0.00,Wunderground v.1.15,2013-03-02 12:20:00,
2013-03-02 06:25:00,38.3,27.2,30.35,NNW,332,2.0,4.0,64,0.00,,,0.00,Wunderground v.1.15,2013-03-02 12:25:00,
2013-03-02 06:35:00,37.9,27.2,30.35,NNW,346,2.0,4.0,65,0.00,,,0.00,Wunderground v.1.15,2013-03-02 12:35:00,
2013-03-02 06:40:00,37.6,26.9,30.35,North,354,2.0,2.0,65,0.00,,,0.00,Wunderground v.1.15,2013-03-02 12:40:00,
2013-03-02 06:50:00,37.2,26.9,30.36,NNW,347,1.0,1.0,66,0.00,,,0.00,Wunderground v.1.15,2013-03-02 12:50:00,
2013-03-02 06:55:00,37.0,26.7,30.36,North,349,2.0,2.0,66,0.00,,,0.00,Wunderground v.1.15,2013-03-02 12:55:00,
2013-03-02 07:05:00,36.8,26.9,30.37,North,349,2.0,3.0,67,0.00,,,0.00,Wunderground v.1.15,2013-03-02 13:05:00,
2013-03-02 07:10:00,36.6,26.7,30.37,North,349,1.0,1.0,67,0.00,,,0.00,Wunderground v.1.15,2013-03-02 13:10:00,
2013-03-02 07:20:00,36.6,27.0,30.38,North,356,2.0,5.0,68,0.00,,,0.00,Wunderground v.1.15,2013-03-02 13:20:00,
2013-03-02 07:25:00,36.8,26.9,30.38,NNW,332,4.0,7.0,67,0.00,,,0.00,Wunderground v.1.15,2013-03-02 13:25:00,
2013-03-02 07:35:00,37.2,26.9,30.38,North,349,5.0,7.0,66,0.00,,,0.00,Wunderground v.1.15,2013-03-02 13:35:00,
2013-03-02 07:40:00,37.6,27.3,30.39,NNW,339,4.0,4.0,66,0.00,,,0.00,Wunderground v.1.15,2013-03-02 13:40:00,
2013-03-02 07:50:00,37.9,27.2,30.39,NNW,339,2.0,3.0,65,0.00,,,0.00,Wunderground v.1.15,2013-03-02 13:50:00,
2013-03-02 07:55:00,38.2,27.5,30.40,NNW,337,2.0,3.0,65,0.00,,,0.00,Wunderground v.1.15,2013-03-02 13:55:00,
2013-03-02 08:05:00,38.6,27.5,30.40,NNW,347,3.0,11.0,64,0.00,,,0.00,Wunderground v.1.15,2013-03-02 14:05:00,
2013-03-02 08:10:00,38.9,27.4,30.41,NNW,330,5.0,5.0,63,0.00,,,0.00,Wunderground v.1.15,2013-03-02 14:10:00,
2013-03-02 08:20:00,39.3,27.7,30.41,NNW,332,6.0,6.0,63,0.00,,,0.00,Wunderground v.1.15,2013-03-02 14:20:00,
2013-03-02 08:25:00,39.6,28.0,30.41,North,357,4.0,6.0,63,0.00,,,0.00,Wunderground v.1.15,2013-03-02 14:25:00,
2013-03-02 08:35:00,40.1,27.7,30.42,North,350,4.0,13.0,61,0.00,,,0.00,Wunderground v.1.15,2013-03-02 14:35:00,
2013-03-02 08:40:00,40.5,28.1,30.41,NNW,339,5.0,8.0,61,0.00,,,0.00,Wunderground v.1.15,2013-03-02 14:40:00,
2013-03-02 08:50:00,41.2,27.9,30.42,NNW,340,3.0,13.0,59,0.00,,,0.00,Wunderground v.1.15,2013-03-02 14:50:00,
2013-03-02 08:55:00,41.5,27.4,30.42,NNW,344,3.0,13.0,57,0.00,,,0.00,Wunderground v.1.15,2013-03-02 14:55:00,
2013-03-02 09:05:00,41.6,27.1,30.42,North,0,3.0,10.0,56,0.00,,,0.00,Wunderground v.1.15,2013-03-02 15:05:00,
2013-03-02 09:10:00,42.1,27.1,30.42,NW,325,4.0,4.0,55,0.00,,,0.00,Wunderground v.1.15,2013-03-02 15:10:00,
2013-03-02 09:20:00,42.8,26.8,30.42,WNW,298,3.0,3.0,53,0.00,,,0.00,Wunderground v.1.15,2013-03-02 15:20:00,
2013-03-02 09:25:00,43.3,27.8,30.42,NW,322,3.0,3.0,54,0.00,,,0.00,Wunderground v.1.15,2013-03-02 15:25:00,
2013-03-02 09:35:00,43.9,26.4,30.42,NW,320,3.0,6.0,50,0.00,,,0.00,Wunderground v.1.15,2013-03-02 15:35:00,
2013-03-02 09:40:00,43.9,26.4,30.42,North,359,6.0,6.0,50,0.00,,,0.00,Wunderground v.1.15,2013-03-02 15:40:00,
2013-03-02 09:50:00,44.6,27.1,30.42,NW,322,4.0,4.0,50,0.00,,,0.00,Wunderground v.1.15,2013-03-02 15:50:00,
2013-03-02 09:55:00,44.9,27.8,30.42,NNW,339,3.0,5.0,51,0.00,,,0.00,Wunderground v.1.15,2013-03-02 15:55:00,
2013-03-02 10:05:00,45.8,27.2,30.42,NW,305,6.0,14.0,48,0.00,,,0.00,Wunderground v.1.15,2013-03-02 16:05:00,
2013-03-02 10:10:00,46.4,26.2,30.42,NNW,343,5.0,5.0,45,0.00,,,0.00,Wunderground v.1.15,2013-03-02 16:10:00,
2013-03-02 10:20:00,47.7,26.8,30.42,North,0,5.0,5.0,44,0.00,,,0.00,Wunderground v.1.15,2013-03-02 16:20:00,
2013-03-02 10:25:00,48.2,26.7,30.42,North,0,6.0,10.0,43,0.00,,,0.00,Wunderground v.1.15,2013-03-02 16:25:00,
2013-03-02 10:35:00,49.2,25.9,30.42,NNW,342,5.0,10.0,40,0.00,,,0.00,Wunderground v.1.15,2013-03-02 16:35:00,
2013-03-02 10:40:00,49.4,25.4,30.41,North,356,5.0,7.0,39,0.00,,,0.00,Wunderground v.1.15,2013-03-02 16:40:00,
2013-03-02 10:50:00,50.7,27.2,30.41,NW,320,4.0,4.0,40,0.00,,,0.00,Wunderground v.1.15,2013-03-02 16:50:00,
2013-03-02 10:55:00,51.3,25.9,30.41,NNW,336,3.0,4.0,37,0.00,,,0.00,Wunderground v.1.15,2013-03-02 16:55:00,
2013-03-02 11:05:00,52.3,26.8,30.41,NW,322,3.0,3.0,37,0.00,,,0.00,Wunderground v.1.15,2013-03-02 17:05:00,
2013-03-02 11:10:00,53.2,25.5,30.40,NW,305,3.0,3.0,34,0.00,,,0.00,Wunderground v.1.15,2013-03-02 17:10:00,
2013-03-02 11:20:00,54.1,27.0,30.40,WNW,287,2.0,6.0,35,0.00,,,0.00,Wunderground v.1.15,2013-03-02 17:20:00,
2013-03-02 11:25:00,54.4,26.6,30.40,NW,318,3.0,13.0,34,0.00,,,0.00,Wunderground v.1.15,2013-03-02 17:25:00,
2013-03-02 11:35:00,54.1,26.3,30.40,NW,308,4.0,5.0,34,0.00,,,0.00,Wunderground v.1.15,2013-03-02 17:35:00,
2013-03-02 11:40:00,54.7,26.8,30.40,North,0,3.0,3.0,34,0.00,,,0.00,Wunderground v.1.15,2013-03-02 17:40:00,
2013-03-02 11:50:00,54.7,24.6,30.39,NW,322,5.0,5.0,31,0.00,,,0.00,Wunderground v.1.15,2013-03-02 17:50:00,
2013-03-02 11:55:00,54.8,24.7,30.39,NNW,333,5.0,5.0,31,0.00,,,0.00,Wunderground v.1.15,2013-03-02 17:55:00,
2013-03-02 12:05:00,56.2,25.1,30.39,NW,326,2.0,16.0,30,0.00,,,0.00,Wunderground v.1.15,2013-03-02 18:05:00,
2013-03-02 12:10:00,56.2,24.3,30.39,North,359,3.0,3.0,29,0.00,,,0.00,Wunderground v.1.15,2013-03-02 18:10:00,
2013-03-02 12:20:00,56.9,24.1,30.38,North,0,2.0,8.0,28,0.00,,,0.00,Wunderground v.1.15,2013-03-02 18:20:00,
2013-03-02 12:25:00,56.3,24.4,30.37,North,359,4.0,8.0,29,0.00,,,0.00,Wunderground v.1.15,2013-03-02 18:25:00,
2013-03-02 12:35:00,56.7,23.9,30.37,NW,312,4.0,5.0,28,0.00,,,0.00,Wunderground v.1.15,2013-03-02 18:35:00,
2013-03-02 12:40:00,57.5,24.6,30.36,North,0,3.0,11.0,28,0.00,,,0.00,Wunderground v.1.15,2013-03-02 18:40:00,
2013-03-02 12:50:00,57.8,24.0,30.35,NW,312,4.0,4.0,27,0.00,,,0.00,Wunderground v.1.15,2013-03-02 18:50:00,
2013-03-02 12:55:00,58.4,23.6,30.35,North,0,3.0,4.0,26,0.00,,,0.00,Wunderground v.1.15,2013-03-02 18:55:00,
2013-03-02 13:05:00,58.3,23.5,30.35,North,3,3.0,3.0,26,0.00,,,0.00,Wunderground v.1.15,2013-03-02 19:05:00,
2013-03-02 13:10:00,58.6,24.7,30.34,NNW,328,3.0,3.0,27,0.00,,,0.00,Wunderground v.1.15,2013-03-02 19:10:00,
2013-03-02 13:20:00,58.9,24.9,30.34,NW,322,4.0,5.0,27,0.00,,,0.00,Wunderground v.1.15,2013-03-02 19:20:00,
2013-03-02 13:25:00,59.5,24.5,30.33,NNW,346,3.0,5.0,26,0.00,,,0.00,Wunderground v.1.15,2013-03-02 19:25:00,
2013-03-02 13:34:00,59.5,24.5,30.33,NW,325,4.0,14.0,26,0.00,,,0.00,Wunderground v.1.15,2013-03-02 19:34:00,
2013-03-02 13:40:00,59.5,25.5,30.32,NNW,329,4.0,4.0,27,0.00,,,0.00,Wunderground v.1.15,2013-03-02 19:40:00,
2013-03-02 13:50:00,60.1,24.1,30.32,North,359,4.0,4.0,25,0.00,,,0.00,Wunderground v.1.15,2013-03-02 19:50:00,
2013-03-02 13:55:00,60.1,25.1,30.32,North,1,4.0,4.0,26,0.00,,,0.00,Wunderground v.1.15,2013-03-02 19:55:00,
2013-03-02 14:05:00,60.1,25.1,30.32,NW,325,5.0,11.0,26,0.00,,,0.00,Wunderground v.1.15,2013-03-02 20:05:00,
2013-03-02 14:10:00,60.5,24.5,30.31,WNW,302,4.0,6.0,25,0.00,,,0.00,Wunderground v.1.15,2013-03-02 20:10:00,
2013-03-02 14:20:00,60.2,25.1,30.31,North,352,4.0,4.0,26,0.00,,,0.00,Wunderground v.1.15,2013-03-02 20:20:00,
2013-03-02 14:25:00,59.9,24.9,30.31,NW,309,4.0,13.0,26,0.00,,,0.00,Wunderground v.1.15,2013-03-02 20:25:00,
2013-03-02 14:35:00,60.1,24.1,30.30,North,0,5.0,18.0,25,0.00,,,0.00,Wunderground v.1.15,2013-03-02 20:35:00,
2013-03-02 14:40:00,60.1,24.1,30.30,North,356,7.0,7.0,25,0.00,,,0.00,Wunderground v.1.15,2013-03-02 20:40:00,
2013-03-02 14:50:00,60.5,25.4,30.30,NNW,333,3.0,3.0,26,0.00,,,0.00,Wunderground v.1.15,2013-03-02 20:50:00,
2013-03-02 14:55:00,60.4,24.4,30.29,WNW,299,4.0,7.0,25,0.00,,,0.00,Wunderground v.1.15,2013-03-02 20:55:00,
2013-03-02 15:05:00,60.5,24.5,30.29,WSW,257,2.0,3.0,25,0.00,,,0.00,Wunderground v.1.15,2013-03-02 21:05:00,
2013-03-02 15:10:00,61.0,24.9,30.29,North,359,3.0,4.0,25,0.00,,,0.00,Wunderground v.1.15,2013-03-02 21:10:00,
2013-03-02 15:20:00,60.9,24.8,30.28,NNW,346,4.0,7.0,25,0.00,,,0.00,Wunderground v.1.15,2013-03-02 21:20:00,
2013-03-02 15:25:00,60.9,24.8,30.28,North,357,2.0,7.0,25,0.00,,,0.00,Wunderground v.1.15,2013-03-02 21:25:00,
2013-03-02 15:35:00,60.1,26.0,30.28,North,354,6.0,19.0,27,0.00,,,0.00,Wunderground v.1.15,2013-03-02 21:35:00,
2013-03-02 15:40:00,59.8,25.7,30.27,WNW,287,5.0,5.0,27,0.00,,,0.00,Wunderground v.1.15,2013-03-02 21:40:00,
2013-03-02 15:50:00,59.6,24.6,30.27,NW,326,2.0,2.0,26,0.00,,,0.00,Wunderground v.1.15,2013-03-02 21:50:00,
2013-03-02 15:55:00,59.8,24.8,30.27,NW,323,2.0,12.0,26,0.00,,,0.00,Wunderground v.1.15,2013-03-02 21:55:00,
2013-03-02 16:05:00,59.3,25.3,30.26,North,356,6.0,6.0,27,0.00,,,0.00,Wunderground v.1.15,2013-03-02 22:05:00,
2013-03-02 16:10:00,59.3,25.3,30.26,North,356,3.0,17.0,27,0.00,,,0.00,Wunderground v.1.15,2013-03-02 22:10:00,
2013-03-02 16:20:00,59.3,25.3,30.26,NW,319,3.0,3.0,27,0.00,,,0.00,Wunderground v.1.15,2013-03-02 22:20:00,
2013-03-02 16:25:00,59.5,26.3,30.25,NNW,340,1.0,3.0,28,0.00,,,0.00,Wunderground v.1.15,2013-03-02 22:25:00,
2013-03-02 16:35:00,59.6,25.5,30.25,NW,318,1.0,1.0,27,0.00,,,0.00,Wunderground v.1.15,2013-03-02 22:35:00,
2013-03-02 16:40:00,59.3,25.3,30.25,NNW,347,1.0,1.0,27,0.00,,,0.00,Wunderground v.1.15,2013-03-02 22:40:00,
2013-03-02 16:50:00,59.0,25.9,30.25,WNW,287,2.0,2.0,28,0.00,,,0.00,Wunderground v.1.15,2013-03-02 22:50:00,
2013-03-02 16:55:00,59.0,25.0,30.25,WNW,296,1.0,2.0,27,0.00,,,0.00,Wunderground v.1.15,2013-03-02 22:55:00,
2013-03-02 17:05:00,58.7,26.5,30.25,NW,304,1.0,1.0,29,0.00,,,0.00,Wunderground v.1.15,2013-03-02 23:05:00,
2013-03-02 17:10:00,58.7,25.6,30.25,WNW,287,1.0,1.0,28,0.00,,,0.00,Wunderground v.1.15,2013-03-02 23:10:00,
2013-03-02 17:20:00,58.6,26.4,30.25,NNW,339,1.0,1.0,29,0.00,,,0.00,Wunderground v.1.15,2013-03-02 23:20:00,
2013-03-02 17:25:00,58.4,27.1,30.25,WNW,302,1.0,1.0,30,0.00,,,0.00,Wunderground v.1.15,2013-03-02 23:25:00,
2013-03-02 17:35:00,58.1,26.8,30.25,NNW,328,1.0,1.0,30,0.00,,,0.00,Wunderground v.1.15,2013-03-02 23:35:00,
2013-03-02 17:40:00,58.0,27.5,30.25,NNW,339,0.0,1.0,31,0.00,,,0.00,Wunderground v.1.15,2013-03-02 23:40:00,
2013-03-02 17:50:00,57.6,27.2,30.25,NNW,336,0.0,1.0,31,0.00,,,0.00,Wunderground v.1.15,2013-03-02 23:50:00,
2013-03-02 17:55:00,57.5,26.3,30.25,NW,325,1.0,2.0,30,0.00,,,0.00,Wunderground v.1.15,2013-03-02 23:55:00,
2013-03-02 18:04:00,57.0,26.6,30.25,NW,325,0.0,1.0,31,0.00,,,0.00,Wunderground v.1.15,2013-03-03 00:04:00,
2013-03-02 18:10:00,56.9,28.8,30.25,NW,325,0.0,0.0,34,0.00,,,0.00,Wunderground v.1.15,2013-03-03 00:10:00,
2013-03-02 18:20:00,55.9,29.3,30.26,NW,325,0.0,0.0,36,0.00,,,0.00,Wunderground v.1.15,2013-03-03 00:20:00,
2013-03-02 18:25:00,55.3,30.1,30.26,NW,325,0.0,0.0,38,0.00,,,0.00,Wunderground v.1.15,2013-03-03 00:25:00,
2013-03-02 18:35:00,54.1,29.0,30.26,NW,325,0.0,0.0,38,0.00,,,0.00,Wunderground v.1.15,2013-03-03 00:35:00,
2013-03-02 18:40:00,53.2,29.5,30.26,NW,325,0.0,0.0,40,0.00,,,0.00,Wunderground v.1.15,2013-03-03 00:40:00,
2013-03-02 18:50:00,51.7,29.3,30.26,NW,325,0.0,0.0,42,0.00,,,0.00,Wunderground v.1.15,2013-03-03 00:50:00,
2013-03-02 18:55:00,51.0,29.3,30.26,NW,325,0.0,0.0,43,0.00,,,0.00,Wunderground v.1.15,2013-03-03 00:55:00,
2013-03-02 19:05:00,49.4,28.4,30.27,NW,325,0.0,0.0,44,0.00,,,0.00,Wunderground v.1.15,2013-03-03 01:05:00,
2013-03-02 19:10:00,48.8,28.9,30.27,NW,325,0.0,0.0,46,0.00,,,0.00,Wunderground v.1.15,2013-03-03 01:10:00,
2013-03-02 19:20:00,47.3,28.6,30.27,NW,325,0.0,0.0,48,0.00,,,0.00,Wunderground v.1.15,2013-03-03 01:20:00,
2013-03-02 19:25:00,46.5,28.3,30.27,NW,325,0.0,0.0,49,0.00,,,0.00,Wunderground v.1.15,2013-03-03 01:25:00,
2013-03-02 19:35:00,45.7,28.1,30.28,NW,325,0.0,0.0,50,0.00,,,0.00,Wunderground v.1.15,2013-03-03 01:35:00,
2013-03-02 19:40:00,45.1,28.0,30.28,NW,325,0.0,0.0,51,0.00,,,0.00,Wunderground v.1.15,2013-03-03 01:40:00,
2013-03-02 19:50:00,44.3,28.2,30.28,NW,325,0.0,0.0,53,0.00,,,0.00,Wunderground v.1.15,2013-03-03 01:50:00,
2013-03-02 19:55:00,44.1,28.5,30.28,NW,325,0.0,0.0,54,0.00,,,0.00,Wunderground v.1.15,2013-03-03 01:55:00,
2013-03-02 20:05:00,43.5,28.4,30.28,NW,325,0.0,0.0,55,0.00,,,0.00,Wunderground v.1.15,2013-03-03 02:05:00,
2013-03-02 20:10:00,43.5,28.4,30.28,NW,325,0.0,0.0,55,0.00,,,0.00,Wunderground v.1.15,2013-03-03 02:10:00,
2013-03-02 20:20:00,42.9,28.3,30.28,NW,325,0.0,0.0,56,0.00,,,0.00,Wunderground v.1.15,2013-03-03 02:20:00,
2013-03-02 20:25:00,42.8,28.2,30.28,NW,325,0.0,0.0,56,0.00,,,0.00,Wunderground v.1.15,2013-03-03 02:25:00,
2013-03-02 20:35:00,42.3,27.7,30.28,NW,325,0.0,0.0,56,0.00,,,0.00,Wunderground v.1.15,2013-03-03 02:35:00,
2013-03-02 20:40:00,42.1,27.9,30.27,NW,325,0.0,0.0,57,0.00,,,0.00,Wunderground v.1.15,2013-03-03 02:40:00,
2013-03-02 20:50:00,41.8,28.1,30.28,NW,325,0.0,0.0,58,0.00,,,0.00,Wunderground v.1.15,2013-03-03 02:50:00,
2013-03-02 20:55:00,41.5,27.8,30.28,NW,325,0.0,0.0,58,0.00,,,0.00,Wunderground v.1.15,2013-03-03 02:55:00,
2013-03-02 21:05:00,41.1,27.9,30.27,NW,325,0.0,0.0,59,0.00,,,0.00,Wunderground v.1.15,2013-03-03 03:05:00,
2013-03-02 21:10:00,40.8,27.6,30.27,NW,325,0.0,0.0,59,0.00,,,0.00,Wunderground v.1.15,2013-03-03 03:10:00,
2013-03-02 21:20:00,40.5,27.7,30.28,NW,325,0.0,0.0,60,0.00,,,0.00,Wunderground v.1.15,2013-03-03 03:20:00,
2013-03-02 21:25:00,40.3,27.9,30.28,NW,325,0.0,0.0,61,0.00,,,0.00,Wunderground v.1.15,2013-03-03 03:25:00,
2013-03-02 21:35:00,40.1,27.7,30.28,NW,325,0.0,0.0,61,0.00,,,0.00,Wunderground v.1.15,2013-03-03 03:35:00,
2013-03-02 21:40:00,39.8,27.8,30.28,NW,325,0.0,0.0,62,0.00,,,0.00,Wunderground v.1.15,2013-03-03 03:40:00,
2013-03-02 21:50:00,39.5,27.5,30.28,NW,325,0.0,0.0,62,0.00,,,0.00,Wunderground v.1.15,2013-03-03 03:50:00,
2013-03-02 21:55:00,39.3,27.7,30.28,NW,325,0.0,0.0,63,0.00,,,0.00,Wunderground v.1.15,2013-03-03 03:55:00,
2013-03-02 22:05:00,39.1,27.6,30.27,NW,325,0.0,0.0,63,0.00,,,0.00,Wunderground v.1.15,2013-03-03 04:05:00,
2013-03-02 22:10:00,38.9,27.8,30.27,NW,325,0.0,0.0,64,0.00,,,0.00,Wunderground v.1.15,2013-03-03 04:10:00,
2013-03-02 22:20:00,38.8,27.7,30.27,NW,325,0.0,0.0,64,0.00,,,0.00,Wunderground v.1.15,2013-03-03 04:20:00,
2013-03-02 22:25:00,38.6,27.8,30.27,NW,325,0.0,0.0,65,0.00,,,0.00,Wunderground v.1.15,2013-03-03 04:25:00,
2013-03-02 22:35:00,38.5,27.7,30.27,NW,325,0.0,0.0,65,0.00,,,0.00,Wunderground v.1.15,2013-03-03 04:35:00,
2013-03-02 22:40:00,38.5,27.7,30.27,NW,325,0.0,0.0,65,0.00,,,0.00,Wunderground v.1.15,2013-03-03 04:40:00,
2013-03-02 22:50:00,38.6,27.8,30.27,NW,325,0.0,0.0,65,0.00,,,0.00,Wunderground v.1.15,2013-03-03 04:50:00,
2013-03-02 22:55:00,38.8,28.0,30.27,NW,325,0.0,0.0,65,0.00,,,0.00,Wunderground v.1.15,2013-03-03 04:55:00,
2013-03-02 23:00:00,38.9,28.1,30.27,NW,325,0.0,0.0,65,0.00,,,0.00,Wunderground v.1.15,2013-03-03 05:00:00,
2013-03-02 23:05:00,39.2,28.0,30.26,NW,325,0.0,0.0,64,0.00,,,0.00,Wunderground v.1.15,2013-03-03 05:05:00,
2013-03-02 23:10:00,39.5,27.9,30.26,NW,325,0.0,0.0,63,0.00,,,0.00,Wunderground v.1.15,2013-03-03 05:10:00,
2013-03-02 23:20:00,39.6,27.6,30.26,NW,325,0.0,0.0,62,0.00,,,0.00,Wunderground v.1.15,2013-03-03 05:20:00,
2013-03-02 23:25:00,39.6,28.0,30.26,NW,325,0.0,0.0,63,0.00,,,0.00,Wunderground v.1.15,2013-03-03 05:25:00,
2013-03-02 23:34:00,39.3,27.4,30.26,NW,325,0.0,0.0,62,0.00,,,0.00,Wunderground v.1.15,2013-03-03 05:34:00,
2013-03-02 23:40:00,39.2,27.7,30.26,NW,325,0.0,0.0,63,0.00,,,0.00,Wunderground v.1.15,2013-03-03 05:40:00,
2013-03-02 23:50:00,38.9,27.4,30.25,NW,325,0.0,0.0,63,0.00,,,0.00,Wunderground v.1.15,2013-03-03 05:50:00,
2013-03-02 23:55:00,38.8,27.3,30.25,NW,325,0.0,0.0,63,0.00,,,0.00,Wunderground v.1.15,2013-03-03 05:55:00,